Aeroporto :
LOGIN :

Iscrizione | Disclaimer

   EN    FR    IT 

 










Sommario :    VFR   VFR Marginale   IFR   IFR Intensivo   IFR Molto Intensivo
Visibilità : 
Base nubi : 
>= 8 km
>= 3000ft
5 / 8 km
1000 / 3000 ft
1500m / 5 km
500 / 1000 ft
800 / 1500m
200 / 500 ft
< 800m
< 200 ft
Simboli :   Temporali  Nebbia  Neve Forte  Precipitazioni Forti  Vento > 20 kt
SIGMETs :   Varie  Temporali  Ghiacco  Turbolenza  Onda orograficha  Ceneri Vulcaniche







- Altitudine del aeroporto : 640 ft
- Codice IATA : AOC


EDAC - Altenburg-Nobitz

ULTIMO METAR :
  • 182350Z AUTO 02004KT 8000 // FEW008/// BKN011/// OVC032/// 12/11 Q1023

METARs OBSOLETI :
  • 182320Z AUTO 02005KT 9000 // FEW004/// SCT014/// OVC017/// 12/11 Q1023
  • 182250Z AUTO 36006KT 3600 // BKN002/// OVC010/// 12/12 Q1023
  • 182220Z AUTO 34003KT 2000 // OVC002/// 12/12 Q1023
  • 182150Z AUTO 30003KT 1200 R22/P2000N // OVC002/// 12/12 Q1023
  • 182120Z AUTO VRB01KT 1600 // OVC002/// 12/12 Q1023

TAF TAF EDAC
Valido dal 18 a 18 ore il 19 a 03 ore UTC


181700Z 1818/1903 35005KT 4000 BR OVC007
TEMPO 1818/1824 6000 BKN012
Nessun NOTAM noto per questo aeroporto.



MetMap, La meteo Aeronautica in un colpo d'occhio ! - Copyright ORBIFLY Dicembre 2007 - Disclaimer

ORBIFLY MET'MAP TEAM :

Programmazione e sviluppo : Alexandra Zaïnal
Concezione e sviluppo : Baudouin d'Aumeries
Co-Programmazione e sviluppo : Marc-Olivier Méhu
Supporto tecnico e logistico : Manuel Goepfert
Aiuto per la traduzione : Arnaldo La Scala

Contatto : metmap@orbifly.com




FONTI E CREDITI :

   NOAA